Home   Weather   Stockton   Past weeks

Flag for USA Past Weather in Stockton, California, USA — Yesterday and Last 2 Weeks

Now
61 °F

Clear.


Feels Like: 61 °F
Forecast: 49 / 75 °F
Wind: 12 mph from West

Location: Stockton Metropolitan Airport

Current Time: Sep 30, 2016 at 8:14:05 PM

Latest Report: Sep 30, 2016 at 7:55 PM


Visibility: 10 mi

Pressure: 30.01 "Hg

Humidity: 58%

Dew Point: 46 °F

Location of StocktonLocation

Past Weather in Stockton — Graph

°F

Stockton Temperature Yesterday

Maximum temperature yesterday: 89 °F (at 3:55 PM)
Minimum temperature yesterday: 55 °F (at 5:55 AM)
Average temperature yesterday: 70 °F

High & Low Weather Summary for the Past Weeks

 TemperatureHumidityPressure
High101 °F (Sep 19, 3:55 PM)87% (Sep 29, 5:55 AM)30.13 "Hg (Sep 29, 5:55 AM)
Low51 °F (Sep 23, 3:55 AM)11% (Sep 19, 4:55 PM)29.76 "Hg (Sep 27, 5:55 PM)
Average73 °F43%29.94 "Hg
* Reported Sep 15 6:55 PM — Sep 30 6:55 PM, Stockton, Weather by CustomWeather, © 2016

Note: Actual official high and low records may vary slightly from our data, if they occured in-between our weather recording intervals... More about our weather records

Advertising

Stockton Weather History for the Previous 24 Hours

Scroll right to see more
 ConditionsComfort  
Time TempWeatherWind HumidityBarometerVisibility
6:55 PM
Fri, Sep 30
64 °FClear.16 mph49%30.01 "Hg10 mi
5:55 PM69 °FSunny.21 mph35%30.00 "Hg10 mi
4:55 PM74 °FSunny.20 mph25%30.00 "Hg10 mi
3:55 PM76 °FSunny.22 mph25%30.01 "Hg9 mi
2:55 PM77 °FSunny.17 mph24%30.01 "Hg10 mi
1:55 PM77 °FSunny.17 mph24%30.03 "Hg10 mi
12:55 PM76 °FSunny.15 mph29%30.06 "Hg10 mi
11:55 AM72 °FSunny.14 mph37%30.07 "Hg10 mi
10:55 AM69 °FSunny.10 mph41%30.08 "Hg10 mi
9:55 AM66 °FSunny.14 mph52%30.08 "Hg10 mi
8:55 AM61 °FSunny.10 mph65%30.07 "Hg10 mi
7:55 AM58 °FSunny.9 mph70%30.06 "Hg10 mi
6:55 AM51 °FClear.6 mph80%30.05 "Hg10 mi
5:55 AM52 °FClear.8 mph80%30.04 "Hg10 mi
4:55 AM52 °FClear.7 mph80%30.03 "Hg10 mi
3:55 AM53 °FClear.8 mph80%30.03 "Hg10 mi
2:55 AM55 °FClear.6 mph72%30.03 "Hg10 mi
1:55 AM56 °FClear.7 mph67%30.02 "Hg10 mi
12:55 AM59 °FClear.6 mph62%30.02 "Hg10 mi
11:55 PM
Thu, Sep 29
61 °FClear.10 mph54%30.02 "Hg10 mi
10:55 PM63 °FClear.5 mph40%30.01 "Hg10 mi
9:55 PM69 °FClear.8 mph22%30.01 "Hg10 mi
8:55 PM70 °FClear.6 mph29%30.00 "Hg10 mi
Weather by CustomWeather, © 2016

See weather overviewHow to use our weather pages